Regional Weather Roundup
Issued by NWS Burlington, VT

Current Version | Previous Version | Text Only | Print | Product List | Glossary Off
Versions: 1 2 3 4 5 6 7 8 9 10 11 12 13 14 15 16 17 18 19 20 21 22 23 24 25 26 27 28 29 30 31 32 33 34 35 36 37 38 39 40 41 42 43 44 45 46 47 48 49 50

539
ASUS41 KBTV 300630
RWRBTV
VERMONT REGIONAL WEATHER ROUNDUP
NATIONAL WEATHER SERVICE BURLINGTON VT
200 AM EDT SUN APR 30 2017

NOTE: "FAIR" INDICATES FEW OR NO CLOUDS BELOW 12,000 FEET WITH NO
SIGNIFICANT WEATHER AND/OR OBSTRUCTIONS TO VISIBILITY.

* THESE REPORTS ARE NOT UNDER NWS QUALITY CONTROL AND/OR DO NOT
  REPORT WEATHER SUCH AS PRECIPITATION AND FOG.

VTZ001>019-300700-
_____VERMONT_____


CITY           SKY/WX    TMP DP  RH WIND       PRES   REMARKS
BURLINGTON     CLEAR     43  26  51 NW13      30.29R
6HR MIN TEMP:  43; 6HR MAX TEMP:  60;

MONTPELIER     CLOUDY    38  24  57 NW8       30.28R
6HR MIN TEMP:  38; 6HR MAX TEMP:  59;

MORRISVILLE    CLOUDY    37  24  59 NW3       30.28R
6HR MIN TEMP:  35; 6HR MAX TEMP:  57;

ST. JOHNSBURY*   N/A     40  23  50 MISG      30.23R
6HR MIN TEMP:  40; 6HR MAX TEMP:  61;

LYNDONVILLE*   FAIR      35  24  65 W8        30.25R WCI  28
6HR MIN TEMP:  35; 6HR MAX TEMP:  57;

MIDDLEBURY*    FAIR      40  25  53 N6        30.26S
6HR MIN TEMP:  41; 6HR MAX TEMP:  63;

RUTLAND*       CLEAR     43  27  53 NW7       30.23R
6HR MIN TEMP:  43; 6HR MAX TEMP:  63;

SPRINGFIELD    CLEAR     49  27  42 N6        30.20R
6HR MIN TEMP:  49; 6HR MAX TEMP:  64;

HIGHGATE*      FAIR      40  25  54 N8        30.30R
6HR MIN TEMP:  40; 6HR MAX TEMP:  56;

NEWPORT*       FAIR      36  24  61 NW9       30.25R WCI  29
6HR MIN TEMP:  36; 6HR MAX TEMP:  56;

BENNINGTON     CLEAR     48  34  58 VRB5      30.20R
6HR MIN TEMP:  48; 6HR MAX TEMP:  60;

SUTTON*          N/A     34 N/A N/A MISG        N/A
ISLAND POND*     N/A     36 N/A N/A NW5         N/A  WCI  32
GALLUP MILLS*    N/A     34 N/A N/A MISG        N/A
UNION VILLAGE*   N/A     45 N/A N/A MISG        N/A
MT. MANSFIELD*   N/A     25 N/A N/A NW25        N/A  WCI   9

_____LAKE CHAMPLAIN_____


CITY           SKY/WX    TMP DP  RH WIND       PRES   REMARKS
COLCHESTER RF*   N/A     43  32  65 NW14        N/A

$$

NYZ007-026>031-035-052-083-087-300700-
_____NORTHERN NEW YORK_____


CITY           SKY/WX    TMP DP  RH WIND       PRES   REMARKS
PLATTSBURGH    CLEAR     41  24  51 NW7       30.30R
6HR MIN TEMP:  41; 6HR MAX TEMP:  59;

SARANAC LAKE   CLEAR     31  23  72 CALM      30.24S
6HR MIN TEMP:  31; 6HR MAX TEMP:  52;

MASSENA        CLEAR     39  25  57 N3        30.33S
6HR MIN TEMP:  39; 6HR MAX TEMP:  53;

OGDENSBURG*    FAIR      39  28  66 N3        30.32S
6HR MIN TEMP:  38; 6HR MAX TEMP:  54;

POTSDAM*       CLEAR     36  28  75 CALM      30.31S
STARK FALLS*     N/A     34 N/A N/A NE1         N/A
WATERTOWN      CLEAR     39  29  67 NE8       30.29S
6HR MIN TEMP:  38; 6HR MAX TEMP:  47;

FT DRUM        CLEAR     39  25  56 NE7       30.27F
6HR MIN TEMP:  39; 6HR MAX TEMP:  49;

ALBANY         CLEAR     50  33  52 W13       30.21S
6HR MIN TEMP:  50; 6HR MAX TEMP:  61;

GLENS FALLS    CLEAR     46  28  49 NE10      30.22R
6HR MIN TEMP:  46; 6HR MAX TEMP:  63;


$$
NHZ002-005-011-300700-
_____NEW HAMPSHIRE_____


CITY           SKY/WX    TMP DP  RH WIND       PRES   REMARKS
LEBANON        CLEAR     48  28  46 N13       30.20R
6HR MIN TEMP:  47; 6HR MAX TEMP:  68;

KEENE          CLEAR     54  33  45 NW6       30.17R
6HR MIN TEMP:  54; 6HR MAX TEMP:  65;

MT WASHINGTON  FOG       18  18 100 NW64G72     N/A  VSB 1/4 WCI  -8
6HR MIN TEMP:  17; 6HR MAX TEMP:  37;

PLYMOUTH       FAIR      44  26  49 NW10G17   30.20R
6HR MIN TEMP:  45; 6HR MAX TEMP:  68;

WHITEFIELD     CLOUDY    37  23  56 N5        30.22R
6HR MIN TEMP:  37; 6HR MAX TEMP:  61;


$$

_____REGIONAL QUEBEC LOCATIONS_____


CITY           SKY/WX    TMP DP  RH WIND       PRES   REMARKS
MONTREAL       PTCLDY    41  23  48 N6        30.30R
QUEBEC CITY    MOCLDY    37  23  56 NW12G17   30.22R WCI  30
SHERBROOKE     CLOUDY    36  21  55 NW10G17   30.23R WCI  28

_____REGIONAL ONTARIO LOCATIONS_____


CITY           SKY/WX    TMP DP  RH WIND       PRES   REMARKS
OTTAWA         CLEAR     39  23  52 N12       30.32F WCI  32

______KEY______
VSB  - VISIBILITY IN MILES
WCI  - WIND CHILL INDEX
HX   - HEAT INDEX
$$
NNNN




USA.gov is the U.S. government's official web portal to all federal, state and local government web resources and services.